Time,TemperatureF,DewpointF,PressureIn,WindDirection,WindDirectionDegrees,WindSpeedMPH,WindSpeedGustMPH,Humidity,HourlyPrecipIn,Conditions,Clouds,dailyrainin,SoftwareType,DateUTC
2013-05-07 00:02:00,40.0,39.0,-100.00,SSE,160,0.0,2.0,94,0.00,,,-99.99,,2013-05-07 06:02:00,
2013-05-07 00:12:00,40.0,38.0,-100.00,East,80,0.0,0.0,94,0.00,,,-99.99,,2013-05-07 06:12:00,
2013-05-07 00:22:00,40.0,39.0,-100.00,SE,140,0.0,0.0,94,0.00,,,-99.99,,2013-05-07 06:22:00,
2013-05-07 00:32:00,40.0,39.0,-100.00,SE,140,0.0,0.0,94,0.00,,,-99.99,,2013-05-07 06:32:00,
2013-05-07 00:42:00,40.0,38.0,-100.00,ENE,70,0.0,0.0,94,0.00,,,-99.99,,2013-05-07 06:42:00,
2013-05-07 00:52:00,40.0,38.0,-100.00,SE,145,0.0,0.0,94,0.00,,,-99.99,,2013-05-07 06:52:00,
2013-05-07 01:02:00,40.0,38.0,-100.00,ENE,75,0.0,0.0,94,0.00,,,-99.99,,2013-05-07 07:02:00,
2013-05-07 01:11:00,39.0,37.0,-100.00,East,90,0.0,0.0,94,0.00,,,-99.99,,2013-05-07 07:11:00,
2013-05-07 01:22:00,39.0,38.0,-100.00,NE,45,0.0,0.0,94,0.00,,,-99.99,,2013-05-07 07:22:00,
2013-05-07 01:31:00,39.0,37.0,-100.00,SSE,155,0.0,0.0,94,0.00,,,-99.99,,2013-05-07 07:31:00,
2013-05-07 01:42:00,38.0,37.0,-100.00,East,90,0.0,0.0,94,0.00,,,-99.99,,2013-05-07 07:42:00,
2013-05-07 01:52:00,38.0,37.0,-100.00,SSE,160,0.0,0.0,94,0.00,,,-99.99,,2013-05-07 07:52:00,
2013-05-07 02:02:00,38.0,37.0,-100.00,South,190,0.0,0.0,94,0.00,,,-99.99,,2013-05-07 08:02:00,
2013-05-07 02:11:00,38.0,37.0,-100.00,SW,230,0.0,0.0,94,0.00,,,-99.99,,2013-05-07 08:11:00,
2013-05-07 02:21:00,38.0,37.0,-100.00,SE,135,0.0,0.0,94,0.00,,,-99.99,,2013-05-07 08:21:00,
2013-05-07 02:32:00,38.0,37.0,-100.00,WNW,295,0.0,0.0,94,0.00,,,-99.99,,2013-05-07 08:32:00,
2013-05-07 02:42:00,39.0,37.0,-100.00,WNW,290,0.0,0.0,94,0.00,,,-99.99,,2013-05-07 08:42:00,
2013-05-07 02:52:00,39.0,38.0,-100.00,NNE,15,0.0,0.0,94,0.10,,,-99.99,,2013-05-07 08:52:00,
2013-05-07 03:01:00,39.0,38.0,-100.00,ENE,65,1.0,6.0,94,0.00,,,-99.99,,2013-05-07 09:01:00,
2013-05-07 03:11:00,39.0,37.0,-100.00,NE,40,2.0,4.0,94,0.00,,,-99.99,,2013-05-07 09:11:00,
2013-05-07 03:22:00,38.0,37.0,-100.00,ENE,60,0.0,4.0,94,0.00,,,-99.99,,2013-05-07 09:22:00,
2013-05-07 03:33:00,38.0,37.0,-100.00,SSE,160,0.0,3.0,94,0.00,,,-99.99,,2013-05-07 09:33:00,
2013-05-07 03:42:00,38.0,37.0,-100.00,ESE,110,0.0,4.0,94,0.00,,,-99.99,,2013-05-07 09:42:00,
2013-05-07 03:52:00,38.0,37.0,-100.00,ESE,110,0.0,4.0,94,0.00,,,-99.99,,2013-05-07 09:52:00,
2013-05-07 04:23:00,38.0,36.0,-100.00,ESE,115,0.0,0.0,94,0.00,,,-99.99,,2013-05-07 10:23:00,
2013-05-07 04:32:00,38.0,36.0,-100.00,ENE,75,1.0,6.0,94,0.00,,,-99.99,,2013-05-07 10:32:00,
2013-05-07 04:42:00,38.0,36.0,-100.00,ESE,110,0.0,4.0,94,0.00,,,-99.99,,2013-05-07 10:42:00,
2013-05-07 04:52:00,38.0,37.0,-100.00,ESE,105,0.0,2.0,94,0.00,,,-99.99,,2013-05-07 10:52:00,
2013-05-07 05:02:00,38.0,37.0,-100.00,East,90,4.0,5.0,94,0.00,,,-99.99,,2013-05-07 11:02:00,
2013-05-07 05:12:00,38.0,36.0,-100.00,East,80,0.0,3.0,94,0.00,,,-99.99,,2013-05-07 11:12:00,
2013-05-07 05:22:00,37.0,35.0,-100.00,SSE,160,0.0,0.0,94,0.00,,,-99.99,,2013-05-07 11:22:00,
2013-05-07 05:32:00,37.0,35.0,-100.00,SSE,150,0.0,0.0,94,0.00,,,-99.99,,2013-05-07 11:32:00,
2013-05-07 05:42:00,37.0,35.0,-100.00,SE,145,1.0,4.0,94,0.00,,,-99.99,,2013-05-07 11:42:00,
2013-05-07 05:52:00,36.0,35.0,-100.00,SSE,150,1.0,4.0,94,0.00,,,-99.99,,2013-05-07 11:52:00,
2013-05-07 06:02:00,37.0,36.0,-100.00,ESE,115,3.0,5.0,94,0.00,,,-99.99,,2013-05-07 12:02:00,
2013-05-07 06:11:00,37.0,35.0,-100.00,SSE,155,4.0,5.0,94,0.00,,,-99.99,,2013-05-07 12:11:00,
2013-05-07 06:21:00,36.0,35.0,-100.00,SE,140,0.0,4.0,94,0.00,,,-99.99,,2013-05-07 12:21:00,
2013-05-07 06:32:00,36.0,35.0,-100.00,SE,130,1.0,4.0,94,0.00,,,-99.99,,2013-05-07 12:32:00,
2013-05-07 06:42:00,36.0,35.0,-100.00,SE,145,4.0,6.0,94,0.00,,,-99.99,,2013-05-07 12:42:00,
2013-05-07 06:52:00,36.0,35.0,-100.00,SSE,155,0.0,4.0,94,0.00,,,-99.99,,2013-05-07 12:52:00,
2013-05-07 07:02:00,36.0,35.0,-100.00,SSE,150,0.0,6.0,94,0.00,,,-99.99,,2013-05-07 13:02:00,
2013-05-07 07:11:00,36.0,35.0,-100.00,SSE,160,4.0,6.0,94,0.00,,,-99.99,,2013-05-07 13:11:00,
2013-05-07 07:21:00,36.0,35.0,-100.00,SE,145,0.0,4.0,94,0.00,,,-99.99,,2013-05-07 13:21:00,
2013-05-07 07:32:00,36.0,35.0,-100.00,SSE,165,0.0,1.0,94,0.00,,,-99.99,,2013-05-07 13:32:00,
2013-05-07 07:42:00,37.0,36.0,-100.00,East,100,0.0,0.0,94,0.00,,,-99.99,,2013-05-07 13:42:00,
2013-05-07 07:52:00,37.0,36.0,-100.00,SSE,150,1.0,3.0,94,0.00,,,-99.99,,2013-05-07 13:52:00,
2013-05-07 08:02:00,37.0,35.0,-100.00,ESE,110,2.0,6.0,94,0.00,,,-99.99,,2013-05-07 14:02:00,
2013-05-07 08:11:00,37.0,36.0,-100.00,East,100,1.0,4.0,94,0.00,,,-99.99,,2013-05-07 14:11:00,
2013-05-07 08:21:00,39.0,37.0,-100.00,East,90,0.0,2.0,94,0.00,,,-99.99,,2013-05-07 14:21:00,
2013-05-07 08:32:00,39.0,37.0,-100.00,ENE,75,0.0,4.0,94,0.00,,,-99.99,,2013-05-07 14:32:00,
2013-05-07 08:42:00,39.0,38.0,-100.00,SSE,150,0.0,2.0,94,0.00,,,-99.99,,2013-05-07 14:42:00,
2013-05-07 08:52:00,42.0,41.0,-100.00,ESE,115,3.0,5.0,94,0.00,,,-99.99,,2013-05-07 14:52:00,
2013-05-07 09:01:00,44.0,42.0,-100.00,East,100,1.0,5.0,94,0.00,,,-99.99,,2013-05-07 15:01:00,
2013-05-07 09:12:00,45.0,43.0,-100.00,SSE,155,3.0,4.0,94,0.00,,,-99.99,,2013-05-07 15:12:00,
2013-05-07 09:21:00,41.0,40.0,-100.00,SSE,155,2.0,4.0,94,0.00,,,-99.99,,2013-05-07 15:21:00,
2013-05-07 09:33:00,41.0,39.0,-100.00,ENE,75,3.0,4.0,93,0.00,,,-99.99,,2013-05-07 15:33:00,
2013-05-07 09:42:00,42.0,38.0,-100.00,ESE,105,1.0,5.0,86,0.00,,,-99.99,,2013-05-07 15:42:00,
2013-05-07 09:53:00,45.0,38.0,-100.00,ENE,70,0.0,4.0,76,0.00,,,-99.99,,2013-05-07 15:53:00,
2013-05-07 10:03:00,47.0,36.0,-100.00,SE,135,0.0,4.0,65,0.00,,,-99.99,,2013-05-07 16:03:00,
2013-05-07 10:12:00,46.0,32.0,-100.00,South,190,1.0,3.0,58,0.00,,,-99.99,,2013-05-07 16:12:00,
2013-05-07 10:22:00,47.0,30.0,-100.00,NE,55,0.0,0.0,51,0.00,,,-99.99,,2013-05-07 16:22:00,
2013-05-07 10:32:00,50.0,30.0,-100.00,NW,315,1.0,4.0,45,0.00,,,-99.99,,2013-05-07 16:32:00,
2013-05-07 10:41:00,48.0,27.0,-100.00,WNW,285,1.0,4.0,44,0.00,,,-99.99,,2013-05-07 16:41:00,
2013-05-07 10:51:00,47.0,26.0,-100.00,WNW,285,1.0,4.0,43,0.00,,,-99.99,,2013-05-07 16:51:00,
2013-05-07 11:01:00,46.0,25.0,-100.00,West,280,1.0,7.0,43,0.00,,,-99.99,,2013-05-07 17:01:00,
2013-05-07 11:12:00,47.0,26.0,-100.00,North,350,0.0,6.0,43,0.00,,,-99.99,,2013-05-07 17:12:00,
2013-05-07 11:21:00,47.0,25.0,-100.00,WNW,295,2.0,7.0,41,0.00,,,-99.99,,2013-05-07 17:21:00,
2013-05-07 11:32:00,46.0,25.0,-100.00,WNW,300,4.0,11.0,42,0.00,,,-99.99,,2013-05-07 17:32:00,
2013-05-07 11:41:00,46.0,24.0,-100.00,WNW,285,4.0,10.0,40,0.00,,,-99.99,,2013-05-07 17:41:00,
2013-05-07 11:52:00,47.0,23.0,-100.00,WNW,300,6.0,11.0,39,0.00,,,-99.99,,2013-05-07 17:52:00,
2013-05-07 12:01:00,47.0,23.0,-100.00,NW,310,4.0,7.0,37,0.00,,,-99.99,,2013-05-07 18:01:00,
2013-05-07 12:11:00,46.0,21.0,-100.00,WNW,295,3.0,7.0,36,0.00,,,-99.99,,2013-05-07 18:11:00,
2013-05-07 12:21:00,48.0,22.0,-100.00,WNW,295,6.0,9.0,35,0.00,,,-99.99,,2013-05-07 18:21:00,
2013-05-07 12:31:00,48.0,24.0,-100.00,WNW,300,8.0,17.0,38,0.00,,,-99.99,,2013-05-07 18:31:00,
2013-05-07 12:42:00,46.0,24.0,-100.00,West,280,10.0,18.0,41,0.00,,,-99.99,,2013-05-07 18:42:00,
2013-05-07 12:51:00,47.0,24.0,-100.00,WNW,290,9.0,13.0,39,0.00,,,-99.99,,2013-05-07 18:51:00,
2013-05-07 13:02:00,46.0,22.0,-100.00,WNW,290,12.0,18.0,37,0.00,,,-99.99,,2013-05-07 19:02:00,
2013-05-07 13:11:00,46.0,22.0,-100.00,WNW,290,9.0,12.0,38,0.00,,,-99.99,,2013-05-07 19:11:00,
2013-05-07 13:21:00,47.0,23.0,-100.00,West,280,7.0,11.0,38,0.00,,,-99.99,,2013-05-07 19:21:00,
2013-05-07 13:32:00,46.0,21.0,-100.00,WNW,285,4.0,10.0,36,0.00,,,-99.99,,2013-05-07 19:32:00,
2013-05-07 13:42:00,45.0,21.0,-100.00,WNW,295,5.0,10.0,37,0.00,,,-99.99,,2013-05-07 19:42:00,
2013-05-07 13:52:00,47.0,22.0,-100.00,WNW,300,4.0,9.0,36,0.00,,,-99.99,,2013-05-07 19:52:00,
2013-05-07 14:02:00,46.0,21.0,-100.00,WNW,285,9.0,14.0,37,0.00,,,-99.99,,2013-05-07 20:02:00,
2013-05-07 14:12:00,46.0,22.0,-100.00,WNW,295,13.0,19.0,38,0.00,,,-99.99,,2013-05-07 20:12:00,
2013-05-07 14:22:00,46.0,22.0,-100.00,NW,305,11.0,17.0,38,0.00,,,-99.99,,2013-05-07 20:22:00,
2013-05-07 14:32:00,45.0,23.0,-100.00,West,275,9.0,20.0,41,0.00,,,-99.99,,2013-05-07 20:32:00,
2013-05-07 14:42:00,44.0,23.0,-100.00,WNW,290,11.0,16.0,43,0.00,,,-99.99,,2013-05-07 20:42:00,
2013-05-07 14:51:00,46.0,24.0,-100.00,NNW,335,6.0,12.0,41,0.00,,,-99.99,,2013-05-07 20:51:00,
2013-05-07 15:01:00,46.0,24.0,-100.00,NW,325,8.0,14.0,40,0.00,,,-99.99,,2013-05-07 21:01:00,
2013-05-07 15:11:00,50.0,27.0,-100.00,WNW,290,7.0,14.0,40,0.00,,,-99.99,,2013-05-07 21:11:00,
2013-05-07 15:22:00,50.0,27.0,-100.00,WNW,285,9.0,13.0,40,0.00,,,-99.99,,2013-05-07 21:22:00,
2013-05-07 15:32:00,50.0,27.0,-100.00,WNW,285,9.0,13.0,40,0.00,,,-99.99,,2013-05-07 21:32:00,
2013-05-07 15:42:00,51.0,27.0,-100.00,WNW,300,10.0,16.0,38,0.00,,,-99.99,,2013-05-07 21:42:00,
2013-05-07 15:52:00,51.0,27.0,-100.00,West,280,12.0,20.0,38,0.00,,,-99.99,,2013-05-07 21:52:00,
2013-05-07 16:02:00,50.0,26.0,-100.00,WNW,285,12.0,17.0,38,0.00,,,-99.99,,2013-05-07 22:02:00,
2013-05-07 16:13:00,49.0,25.0,-100.00,WNW,290,13.0,17.0,38,0.00,,,-99.99,,2013-05-07 22:13:00,
2013-05-07 16:22:00,48.0,24.0,-100.00,WNW,285,10.0,18.0,39,0.00,,,-99.99,,2013-05-07 22:22:00,
2013-05-07 16:33:00,47.0,25.0,-100.00,WNW,290,13.0,19.0,41,0.00,,,-99.99,,2013-05-07 22:33:00,
2013-05-07 16:42:00,46.0,26.0,-100.00,SSW,210,12.0,20.0,45,0.00,,,-99.99,,2013-05-07 22:42:00,
2013-05-07 16:52:00,43.0,29.0,-100.00,WSW,250,4.0,19.0,56,0.00,,,-99.99,,2013-05-07 22:52:00,
2013-05-07 17:02:00,33.0,23.0,-100.00,SSE,165,4.0,9.0,66,0.00,,,-99.99,,2013-05-07 23:02:00,
2013-05-07 17:12:00,38.0,30.0,-100.00,ENE,75,1.0,13.0,74,0.00,,,-99.99,,2013-05-07 23:12:00,
2013-05-07 17:21:00,40.0,35.0,-100.00,East,80,0.0,3.0,79,0.00,,,-99.99,,2013-05-07 23:21:00,
2013-05-07 17:32:00,41.0,36.0,-100.00,East,95,7.0,9.0,83,0.00,,,-99.99,,2013-05-07 23:32:00,
2013-05-07 17:42:00,42.0,37.0,-100.00,ENE,65,4.0,7.0,83,0.00,,,-99.99,,2013-05-07 23:42:00,
2013-05-07 17:52:00,43.0,38.0,-100.00,East,80,2.0,5.0,83,0.00,,,-99.99,,2013-05-07 23:52:00,
2013-05-07 18:02:00,42.0,37.0,-100.00,East,85,0.0,4.0,83,0.00,,,-99.99,,2013-05-08 00:02:00,
2013-05-07 18:11:00,42.0,37.0,-100.00,South,180,0.0,0.0,83,0.00,,,-99.99,,2013-05-08 00:11:00,
2013-05-07 18:21:00,42.0,38.0,-100.00,SW,215,0.0,2.0,84,0.00,,,-99.99,,2013-05-08 00:21:00,
2013-05-07 18:32:00,40.0,37.0,-100.00,NNE,15,0.0,4.0,85,0.10,,,-99.99,,2013-05-08 00:32:00,
2013-05-07 18:42:00,39.0,36.0,-100.00,West,280,7.0,11.0,87,0.00,,,-99.99,,2013-05-08 00:42:00,
2013-05-07 18:51:00,38.0,35.0,-100.00,NW,310,1.0,10.0,88,0.00,,,-99.99,,2013-05-08 00:51:00,
2013-05-07 19:02:00,38.0,35.0,-100.00,NNW,330,1.0,4.0,88,0.00,,,-99.99,,2013-05-08 01:02:00,
2013-05-07 19:11:00,39.0,36.0,-100.00,NW,315,0.0,2.0,89,0.00,,,-99.99,,2013-05-08 01:11:00,
2013-05-07 19:21:00,39.0,36.0,-100.00,SW,230,0.0,0.0,90,0.00,,,-99.99,,2013-05-08 01:21:00,
2013-05-07 19:32:00,39.0,37.0,-100.00,WSW,255,0.0,0.0,90,0.00,,,-99.99,,2013-05-08 01:32:00,
2013-05-07 19:42:00,40.0,37.0,-100.00,WSW,255,0.0,0.0,90,0.00,,,-99.99,,2013-05-08 01:42:00,
2013-05-07 19:52:00,39.0,37.0,-100.00,NNE,25,0.0,4.0,90,0.00,,,-99.99,,2013-05-08 01:52:00,
2013-05-07 20:02:00,40.0,37.0,-100.00,NNE,30,3.0,5.0,90,0.00,,,-99.99,,2013-05-08 02:02:00,
2013-05-07 20:12:00,40.0,38.0,-100.00,SW,225,0.0,2.0,91,0.00,,,-99.99,,2013-05-08 02:12:00,
2013-05-07 20:22:00,40.0,37.0,-100.00,SSW,195,0.0,0.0,91,0.00,,,-99.99,,2013-05-08 02:22:00,
2013-05-07 20:32:00,39.0,37.0,-100.00,SSW,195,0.0,0.0,91,0.00,,,-99.99,,2013-05-08 02:32:00,
2013-05-07 20:42:00,39.0,37.0,-100.00,SW,215,0.0,0.0,91,0.00,,,-99.99,,2013-05-08 02:42:00,
2013-05-07 20:52:00,39.0,37.0,-100.00,South,175,0.0,0.0,91,0.00,,,-99.99,,2013-05-08 02:52:00,
2013-05-07 21:02:00,39.0,37.0,-100.00,South,185,0.0,0.0,92,0.00,,,-99.99,,2013-05-08 03:02:00,
2013-05-07 21:11:00,39.0,37.0,-100.00,ESE,120,0.0,0.0,92,0.00,,,-99.99,,2013-05-08 03:11:00,
2013-05-07 21:21:00,39.0,37.0,-100.00,ESE,105,0.0,0.0,92,0.10,,,-99.99,,2013-05-08 03:21:00,
2013-05-07 21:32:00,39.0,37.0,-100.00,ESE,110,5.0,6.0,92,0.10,,,-99.99,,2013-05-08 03:32:00,
2013-05-07 21:43:00,38.0,36.0,-100.00,SE,140,6.0,8.0,92,0.10,,,-99.99,,2013-05-08 03:43:00,
2013-05-07 21:52:00,38.0,36.0,-100.00,SE,125,4.0,7.0,93,0.00,,,-99.99,,2013-05-08 03:52:00,
2013-05-07 22:02:00,38.0,36.0,-100.00,SE,145,1.0,6.0,93,0.00,,,-99.99,,2013-05-08 04:02:00,
2013-05-07 22:13:00,37.0,35.0,-100.00,East,90,1.0,4.0,93,0.00,,,-99.99,,2013-05-08 04:13:00,
2013-05-07 22:23:00,37.0,35.0,-100.00,East,90,0.0,3.0,93,0.00,,,-99.99,,2013-05-08 04:23:00,
2013-05-07 22:33:00,36.0,34.0,-100.00,South,180,0.0,0.0,93,0.00,,,-99.99,,2013-05-08 04:33:00,
2013-05-07 22:43:00,37.0,35.0,-100.00,SSE,155,0.0,0.0,93,0.00,,,-99.99,,2013-05-08 04:43:00,
2013-05-07 22:52:00,36.0,35.0,-100.00,SSE,160,0.0,0.0,93,0.00,,,-99.99,,2013-05-08 04:52:00,
2013-05-07 23:02:00,36.0,34.0,-100.00,East,80,0.0,4.0,93,0.00,,,-99.99,,2013-05-08 05:02:00,
2013-05-07 23:12:00,37.0,36.0,-100.00,East,80,0.0,0.0,93,0.00,,,-99.99,,2013-05-08 05:12:00,
2013-05-07 23:22:00,37.0,36.0,-100.00,South,170,0.0,0.0,93,0.00,,,-99.99,,2013-05-08 05:22:00,
2013-05-07 23:32:00,38.0,37.0,-100.00,South,170,0.0,0.0,93,0.00,,,-99.99,,2013-05-08 05:32:00,
2013-05-07 23:42:00,39.0,37.0,-100.00,SSE,165,0.0,0.0,93,0.00,,,-99.99,,2013-05-08 05:42:00,
2013-05-07 23:52:00,39.0,37.0,-100.00,ESE,105,1.0,4.0,93,0.00,,,-99.99,,2013-05-08 05:52:00,